STARLINK-11290, 61000

Orbit data source: Space-Track

STARLINK-11290, 61000 is a payload satellite owned by SpaceX/Seattle (US) in LEO that was launched on Thu, 05 Sep 2024 UTC via an FALCON 9 launch vehicle from the Air Force Eastern Test Range (AFETR). Payload-class satellites include a variety of spacecraft equipped with specific instruments for various scientific and technological missions. These include communications satellites like Starlink; space stations such as the ISS; scientific satellites like the Hubble; Earth observation satellites from companies like Planet Labs, Umbra, and HawkEye 360; GPS; miniature CubeSats for education and research; and military/defense satellites.

Loading next visibility...
Identifier
61000, 2024-158L
Orbit
LEO
Country
Flag of USUS
Related business
Manufacturer
SpaceX/Seattle
Mission
Operational Commercial Communications
Bus & Motor
STARLINK V2MD, Unknown motor
Mass
960 kg wet, ~910 kg dry
Launch date (UTC)
2024-09-05 (2 years ago)
Launch vehicle
FALCON 9
Launch site
Air Force Eastern Test Range (AFETR)
Object type
Payload
Rocket body
Debris
Shape & HBR
Box + 2 Pan, 18.1 m
Radar Cross Section
36.964 m², Large (>1 m²)

Expand to show TLE details & history
Last TLE update: 16 hours ago

TLE from 16 hours ago
0 STARLINK-11290
1 61000U 24158L   26127.89721797  .00002753  00000-0  27580-4 0  9998
2 61000  53.1589 349.4077 0000703 124.3951 235.7134 15.69699760 96951
Epoch: 2026-05-07T21:31Z
TLE epoch observation values (Epoch: 2026-05-07T21:31:59.632Z)
Latitude
0.00002°
Longitude
160.67248°
Altitude
360.938 km
Speed
7.694 km/s
True Right ascension
23h 17m 37s
True Declination
0° 00' 00"
Sunlit
Object was in daylight at epoch
Visualization orbit readout
Latitude
Unknown
Longitude
Unknown
Altitude
Unknown
Speed
Unknown
Apparent Right ascension
Unknown
Apparent Declination
Unknown
Sunlit
N/A
Visualization observer readout
Local Sidereal Time
21:17:46
Azimuth
Unknown
Elevation
Unknown
Doppler factor
Unknown
Orbital elements
Apogee altitude
360.491 km
Perigee altitude
359.543 km
Semi-major axis
6,738.154 km
Eccentricity
0.00007
Inclination
53.1589°
RAAN
349.4077°
Arg. of periapsis
124.3951°
True anomaly
235.70674°
Mean anomaly
235.7134°
Eccentric anomaly
235.71007°
Mean motion
3.92403 °/min
Orbital period
91.74 mins
BSTAR
0.00002758
Loading maneuver chart data...
Computing Atmospheric mass density...
Loading historical data...
Loading historical data...
Loading historical data...
Loading historical data...
Loading historical data...
Loading historical data...
Loading historical data...

Documentation

Showing up to 5 results
|